period_start,C,m1,H,J0,J1,J2,J3,J4,J5,JA,JB,JC,JD,JJ,JK,JN,#
2017-05-18 00:01:49,0.13,0.20,0.00,22.70,26.34,30.38,14.52,47.49,1010.76,2034.02,3391.16,3050.92,3498.54,599.88,593.10,4.17,0000 0000 0000 0000 000000
2017-05-18 00:06:51,0.13,0.21,0.00,22.74,26.36,30.42,14.39,47.38,1010.78,2034.00,3388.50,3048.71,3496.04,599.88,592.97,4.22,0000 0000 0000 0000 000000
2017-05-18 00:11:52,0.11,0.22,0.00,22.89,26.39,30.43,14.46,47.46,1010.80,2034.00,3386.20,3046.88,3494.00,600.20,593.05,4.27,0000 0000 0000 0000 000000
2017-05-18 00:16:53,0.08,0.22,0.00,23.21,26.42,30.24,14.44,47.38,1010.85,2034.00,3384.39,3045.42,3492.30,600.14,592.32,4.32,0000 0000 0000 0000 000000
2017-05-18 00:21:55,0.09,0.23,0.00,23.26,26.47,30.17,14.37,47.42,1010.82,2033.97,3382.48,3043.86,3490.59,599.94,592.05,4.37,0000 0000 0000 0000 000000
2017-05-18 00:26:56,0.09,0.23,0.00,23.54,26.51,30.18,14.45,47.38,1010.84,2033.91,3380.49,3042.31,3488.77,600.23,591.79,4.42,0000 0000 0000 0000 000000
2017-05-18 00:31:57,0.06,0.24,0.00,23.62,26.56,30.24,14.34,47.51,1010.81,2033.46,3378.29,3040.56,3486.77,599.92,591.35,4.47,0000 0000 0000 0000 000000
2017-05-18 00:36:59,0.07,0.24,0.00,23.36,26.58,30.27,14.40,47.30,1010.89,2033.10,3376.18,3038.93,3484.91,600.30,592.21,4.52,0000 0000 0000 0000 000000
2017-05-18 00:42:00,0.08,0.24,0.00,23.16,26.61,30.33,14.42,47.44,1010.91,2033.01,3374.22,3037.48,3483.25,600.03,592.39,4.57,0000 0000 0000 0000 000000
2017-05-18 00:47:01,0.10,0.25,0.00,23.09,26.63,30.53,14.38,47.33,1010.97,2033.00,3372.20,3035.87,3481.46,599.88,592.41,4.62,0000 0000 0000 0000 000000
2017-05-18 00:52:03,0.09,0.25,0.00,23.06,26.65,30.62,14.43,47.27,1010.83,2033.00,3370.07,3034.23,3479.60,599.88,592.45,4.67,0000 0000 0000 0000 000000
2017-05-18 00:57:04,0.09,0.26,0.00,23.13,26.66,30.52,14.46,47.33,1010.81,2032.99,3368.17,3032.83,3477.98,600.04,592.27,4.73,0000 0000 0000 0000 000000
2017-05-18 01:02:05,0.10,0.26,0.00,23.53,26.67,30.43,14.41,47.33,1010.89,2032.98,3366.11,3031.13,3476.07,599.99,591.62,4.78,0000 0000 0000 0000 000000
2017-05-18 01:07:07,0.13,0.27,0.00,23.44,26.70,30.30,14.35,47.42,1011.07,2032.97,3363.81,3029.19,3473.89,599.87,591.86,4.83,0000 0000 0000 0000 000000
2017-05-18 01:12:08,0.10,0.28,0.00,23.72,26.73,30.32,14.42,47.41,1011.13,2032.75,3361.09,3027.09,3471.59,599.70,591.01,4.88,0000 0000 0000 0000 000000
2017-05-18 01:17:09,0.09,0.28,0.00,23.84,26.76,30.37,14.33,47.43,1011.08,2032.41,3358.33,3025.05,3469.21,599.74,590.92,4.93,0000 0000 0000 0000 000000
2017-05-18 01:22:10,0.05,0.28,0.00,23.82,26.79,30.40,14.34,47.38,1011.07,2032.09,3356.67,3023.79,3467.73,599.74,590.95,4.98,0000 0000 0000 0000 000000
2017-05-18 01:27:12,0.06,0.29,0.00,23.89,26.81,30.43,14.39,47.42,1010.87,2032.04,3355.28,3022.74,3466.50,599.95,590.81,5.03,0000 0000 0000 0000 000000
2017-05-18 01:32:13,0.04,0.29,0.00,23.96,26.84,30.44,14.34,47.31,1010.82,2032.01,3354.05,3021.91,3465.53,599.90,590.67,5.08,0000 0000 0000 0000 000000
2017-05-18 01:37:15,0.05,0.29,0.00,24.08,26.87,30.46,14.31,47.28,1010.89,2032.00,3352.91,3021.03,3464.54,599.80,590.33,5.13,0000 0000 0000 0000 000000
2017-05-18 01:42:16,0.05,0.29,0.00,24.16,26.89,30.49,14.47,47.42,1011.08,2032.00,3351.84,3020.14,3463.68,600.28,590.77,5.18,0000 0000 0000 0000 000000
2017-05-18 01:47:17,0.05,0.30,0.00,24.14,26.91,30.49,14.29,47.40,1011.23,2032.00,3350.75,3019.45,3462.75,599.76,590.27,5.23,0000 0000 0000 0000 000000
2017-05-18 01:52:18,0.05,0.30,0.00,24.22,26.92,30.49,14.29,47.37,1011.24,2032.00,3349.65,3018.70,3461.76,600.12,590.63,5.28,0000 0000 0000 0000 000000
2017-05-18 01:57:19,0.06,0.30,0.00,24.24,26.94,30.47,14.27,47.41,1011.24,2031.99,3348.21,3017.66,3460.63,599.88,590.24,5.33,0000 0000 0000 0000 000000
2017-05-18 02:02:20,0.04,0.31,0.00,24.27,26.95,30.50,14.32,47.33,1011.24,2031.96,3346.99,3016.83,3459.61,599.83,590.17,5.38,0000 0000 0000 0000 000000
2017-05-18 02:07:22,0.05,0.31,0.00,24.29,26.95,30.49,14.30,47.38,1011.24,2031.93,3345.91,3016.03,3458.70,599.94,590.21,5.43,0000 0000 0000 0000 000000
2017-05-18 02:12:23,0.05,0.31,0.00,24.29,26.95,30.46,14.37,47.35,1011.24,2031.91,3344.78,3015.42,3457.87,600.17,590.50,5.48,0000 0000 0000 0000 000000
2017-05-18 02:17:24,0.05,0.31,0.00,24.32,26.96,30.45,14.36,47.40,1011.24,2031.86,3343.45,3014.42,3456.82,600.07,590.37,5.53,0000 0000 0000 0000 000000
2017-05-18 02:22:25,0.04,0.32,0.00,24.32,26.97,30.45,14.31,47.38,1011.24,2031.85,3342.22,3013.73,3455.91,599.89,590.16,5.58,0000 0000 0000 0000 000000
2017-05-18 02:27:27,0.03,0.32,0.00,24.33,26.97,30.44,14.25,47.23,1011.24,2031.76,3341.11,3012.91,3455.03,600.04,590.29,5.63,0000 0000 0000 0000 000000
2017-05-18 02:32:28,0.06,0.32,0.00,24.37,26.97,30.46,14.32,47.43,1011.24,2031.85,3340.02,3012.11,3454.22,599.88,589.84,5.68,0000 0000 0000 0000 000000
2017-05-18 02:37:29,0.07,0.32,0.00,24.35,26.97,30.43,14.32,47.32,1011.24,2031.85,3338.64,3011.27,3453.21,600.18,590.38,5.73,0000 0000 0000 0000 000000
2017-05-18 02:42:30,0.10,0.33,0.00,24.38,26.97,30.41,14.32,47.39,1011.24,2031.81,3336.62,3009.79,3451.55,600.07,590.21,5.78,0000 0000 0000 0000 000000
2017-05-18 02:47:32,0.07,0.33,0.00,24.39,26.97,30.41,14.27,47.30,1011.24,2031.74,3334.52,3008.49,3450.02,600.08,590.22,5.83,0000 0000 0000 0000 000000
2017-05-18 02:52:33,0.07,0.34,0.00,24.40,26.97,30.40,14.29,47.40,1011.24,2031.64,3332.54,3007.44,3448.68,599.79,589.99,5.88,0000 0000 0000 0000 000000
2017-05-18 02:57:34,0.07,0.34,0.00,24.41,26.97,30.40,14.29,47.40,1011.24,2031.65,3331.00,3006.58,3447.64,599.94,590.08,5.93,0000 0000 0000 0000 000000
2017-05-18 03:02:35,0.04,0.34,0.00,24.46,26.97,30.37,14.33,47.37,1011.24,2031.59,3329.80,3005.81,3446.57,600.02,590.11,5.98,0000 0000 0000 0000 000000
2017-05-18 03:07:37,0.03,0.34,0.00,24.45,26.98,30.37,14.33,47.39,1011.24,2031.38,3328.56,3004.85,3445.60,600.01,589.96,6.03,0000 0000 0000 0000 000000
2017-05-18 03:12:38,0.06,0.35,0.00,24.47,26.99,30.36,14.24,47.41,1011.24,2031.23,3327.04,3003.74,3444.34,599.76,589.69,6.08,0000 0000 0000 0000 000000
2017-05-18 03:17:39,0.04,0.35,0.00,24.45,27.00,30.34,14.38,47.45,1011.25,2031.08,3325.71,3002.81,3443.22,600.21,590.20,6.13,0000 0000 0000 0000 000000
2017-05-18 03:22:40,0.05,0.35,0.00,24.47,27.00,30.35,14.21,47.36,1011.25,2031.07,3324.48,3001.95,3442.19,599.93,589.90,6.18,0000 0000 0000 0000 000000
2017-05-18 03:27:42,0.07,0.36,0.00,24.49,27.00,30.34,14.30,47.43,1011.25,2031.06,3323.11,3000.93,3441.10,599.97,589.82,6.23,0000 0000 0000 0000 000000
2017-05-18 03:32:43,0.05,0.36,0.00,24.52,27.00,30.36,14.24,47.39,1011.25,2031.04,3321.73,3000.04,3440.02,599.85,589.71,6.28,0000 0000 0000 0000 000000
2017-05-18 03:37:44,0.06,0.36,0.00,24.50,27.01,30.35,14.30,47.35,1011.25,2031.03,3320.54,2999.17,3439.07,600.03,589.96,6.33,0000 0000 0000 0000 000000
2017-05-18 03:42:46,0.06,0.36,0.00,24.49,27.02,30.33,14.31,47.49,1011.25,2031.03,3319.37,2998.36,3438.10,600.34,590.27,6.38,0000 0000 0000 0000 000000
2017-05-18 03:47:47,0.07,0.37,0.00,24.49,27.02,30.35,14.26,47.34,1011.25,2031.00,3317.61,2997.43,3436.88,599.91,589.97,6.43,0000 0000 0000 0000 000000
2017-05-18 03:52:48,0.10,0.37,0.00,24.48,27.02,30.30,14.38,47.42,1011.25,2031.02,3315.13,2995.95,3435.29,600.06,589.93,6.48,0000 0000 0000 0000 000000
2017-05-18 03:57:49,0.08,0.38,0.00,24.50,27.03,30.33,14.28,47.49,1011.26,2031.01,3313.03,2994.79,3433.90,599.98,589.93,6.53,0000 0000 0000 0000 000000
2017-05-18 04:02:51,0.10,0.38,0.00,24.51,27.04,30.31,14.32,47.39,1011.25,2031.01,3310.80,2993.58,3432.59,600.09,589.98,6.58,0000 0000 0000 0000 000000
2017-05-18 04:07:52,0.11,0.39,0.00,24.46,27.05,30.33,14.26,47.44,1011.25,2031.01,3307.65,2992.08,3430.75,599.84,589.85,6.63,0000 0000 0000 0000 000000
2017-05-18 04:12:53,0.09,0.39,0.00,24.47,27.05,30.34,14.30,47.47,1011.26,2031.01,3305.03,2990.71,3429.23,599.99,590.07,6.68,0000 0000 0000 0000 000000
2017-05-18 04:17:55,0.09,0.40,0.00,24.48,27.06,30.36,14.41,47.48,1011.26,2031.01,3302.62,2989.46,3427.76,600.00,589.93,6.73,0000 0000 0000 0000 000000
2017-05-18 04:22:56,0.06,0.40,0.00,24.45,27.07,30.35,14.34,47.42,1011.27,2031.00,3300.81,2988.36,3426.58,600.20,590.22,6.78,0000 0000 0000 0000 000000
2017-05-18 04:27:58,0.05,0.41,0.00,24.48,27.07,30.33,14.29,47.34,1011.51,2031.00,3299.62,2987.58,3425.58,600.05,590.00,6.83,0000 0000 0000 0000 000000
2017-05-18 04:32:59,0.05,0.41,0.00,24.52,27.07,30.34,14.31,47.42,1011.63,2031.00,3298.41,2986.76,3424.60,600.03,590.25,6.88,0000 0000 0000 0000 000000
2017-05-18 04:38:00,0.04,0.41,0.00,24.37,27.09,30.37,14.35,47.42,1011.68,2031.00,3297.19,2985.96,3423.61,600.19,590.59,6.93,0000 0000 0000 0000 000000
2017-05-18 04:43:01,0.04,0.41,0.00,24.42,27.10,30.35,14.35,47.37,1011.67,2031.00,3296.22,2985.12,3422.94,600.04,590.51,6.98,0000 0000 0000 0000 000000
2017-05-18 04:48:03,0.03,0.42,0.00,24.48,27.10,30.36,14.28,47.44,1011.72,2030.99,3295.59,2984.89,3422.10,600.00,590.33,7.03,0000 0000 0000 0000 000000
2017-05-18 04:53:04,0.04,0.42,0.00,24.48,27.10,30.40,14.28,47.36,1011.73,2030.99,3294.77,2984.13,3421.71,600.36,590.61,7.09,0000 0000 0000 0000 000000
2017-05-18 04:58:05,0.06,0.42,0.00,24.34,27.10,30.37,14.40,47.42,1011.73,2030.99,3293.53,2983.51,3420.69,600.03,590.53,7.14,0000 0000 0000 0000 000000
2017-05-18 05:03:07,0.14,0.43,0.00,24.44,27.10,30.37,14.34,47.44,1011.73,2030.99,3290.76,2981.56,3418.53,600.02,590.33,7.19,0000 0000 0000 0000 000000
2017-05-18 05:08:08,0.02,0.43,0.00,24.44,27.10,30.37,14.29,47.50,1011.73,2030.99,3289.69,2980.95,3417.73,600.29,590.52,7.24,0000 0000 0000 0000 000000
2017-05-18 05:13:09,0.04,0.43,0.00,24.39,27.10,30.39,14.35,47.50,1011.73,2030.99,3288.81,2980.14,3417.01,600.15,590.56,7.29,0000 0000 0000 0000 000000
2017-05-18 05:18:11,0.03,0.43,0.00,24.41,27.11,30.37,14.29,47.42,1011.73,2030.99,3287.92,2979.83,3416.22,600.17,590.52,7.34,0000 0000 0000 0000 000000
2017-05-18 05:23:12,0.04,0.44,0.00,24.39,27.10,30.37,14.40,47.52,1011.73,2030.99,3287.03,2979.08,3415.75,599.86,590.26,7.39,0000 0000 0000 0000 000000
2017-05-18 05:28:14,0.03,0.44,0.00,24.39,27.10,30.35,14.30,47.40,1011.73,2030.99,3286.11,2978.74,3414.98,600.20,590.63,7.44,0000 0000 0000 0000 000000
2017-05-18 05:33:15,0.04,0.44,0.00,24.43,27.10,30.37,14.33,47.40,1011.73,2030.99,3285.25,2978.02,3414.14,600.14,590.46,7.49,0000 0000 0000 0000 000000
2017-05-18 05:38:16,0.03,0.44,0.00,24.35,27.10,30.38,14.33,47.44,1011.73,2030.99,3284.56,2977.74,3413.85,600.05,590.46,7.54,0000 0000 0000 0000 000000
2017-05-18 05:43:17,0.04,0.44,0.00,24.34,27.10,30.36,14.34,47.48,1011.73,2030.99,3283.44,2977.01,3412.99,600.15,590.61,7.59,0000 0000 0000 0000 000000
2017-05-18 05:48:18,0.05,0.45,0.00,24.41,27.10,30.34,14.32,47.35,1011.75,2030.99,3282.08,2976.21,3412.08,599.92,590.33,7.64,0000 0000 0000 0000 000000
2017-05-18 05:53:19,0.03,0.45,0.00,24.38,27.09,30.33,14.30,47.38,1011.82,2030.99,3281.18,2975.93,3411.54,600.37,590.91,7.69,0000 0000 0000 0000 000000
2017-05-18 05:58:21,0.05,0.45,0.00,24.37,27.08,30.35,14.33,47.45,1011.95,2030.99,3280.23,2975.12,3410.81,600.14,590.71,7.74,0000 0000 0000 0000 000000
2017-05-18 06:03:22,0.03,0.45,0.00,24.32,27.07,30.31,14.33,47.42,1012.10,2030.99,3279.50,2974.71,3410.06,600.30,591.00,7.79,0000 0000 0000 0000 000000
2017-05-18 06:08:23,0.04,0.45,0.00,24.27,27.07,30.33,14.31,47.37,1012.08,2030.99,3278.32,2974.00,3409.30,600.25,590.96,7.84,0000 0000 0000 0000 000000
2017-05-18 06:13:25,0.05,0.46,0.00,24.28,27.07,30.33,14.35,47.40,1012.15,2030.99,3277.12,2973.19,3408.65,599.83,590.70,7.89,0000 0000 0000 0000 000000
2017-05-18 06:18:26,0.07,0.46,0.00,24.39,27.07,30.34,14.45,47.28,1012.18,2031.00,3275.43,2972.56,3407.63,600.41,591.03,7.94,0000 0000 0000 0000 000000
2017-05-18 06:23:27,0.08,0.46,0.00,24.33,27.05,30.35,14.28,47.36,1012.22,2031.00,3273.05,2971.38,3406.24,599.83,590.77,7.99,0000 0000 0000 0000 000000
2017-05-18 06:28:28,0.06,0.47,0.00,24.30,27.05,30.36,14.34,47.47,1012.22,2031.00,3271.49,2970.56,3405.29,599.91,590.84,8.04,0000 0000 0000 0000 000000
2017-05-18 06:33:30,0.04,0.47,0.00,24.23,27.05,30.34,14.31,47.35,1012.22,2031.00,3270.33,2969.98,3404.50,599.91,590.87,8.09,0000 0000 0000 0000 000000
2017-05-18 06:38:31,0.06,0.47,0.00,24.29,27.05,30.32,14.38,47.33,1012.22,2031.00,3269.02,2969.14,3403.68,599.99,590.84,8.14,0000 0000 0000 0000 000000
2017-05-18 06:43:33,0.05,0.48,0.00,24.32,27.04,30.34,14.34,47.28,1012.22,2031.00,3267.60,2968.44,3402.79,600.12,590.95,8.19,0000 0000 0000 0000 000000
2017-05-18 06:48:34,0.02,0.48,0.00,24.29,27.03,30.31,14.35,47.31,1012.22,2031.01,3266.78,2968.00,3402.03,599.65,590.56,8.24,0000 0000 0000 0000 000000
2017-05-18 06:53:35,0.03,0.48,0.00,24.27,27.02,30.33,14.24,47.28,1012.22,2031.02,3266.03,2967.61,3401.69,599.73,590.67,8.29,0000 0000 0000 0000 000000
2017-05-18 06:58:37,0.03,0.48,0.00,24.29,27.02,30.32,14.34,47.31,1012.23,2031.03,3265.27,2967.03,3401.03,599.88,590.66,8.34,0000 0000 0000 0000 000000
2017-05-18 07:03:38,0.04,0.48,0.00,24.34,27.02,30.34,14.45,47.41,1012.25,2031.02,3264.63,2966.72,3400.49,600.30,591.27,8.39,0000 0000 0000 0000 000000
2017-05-18 07:08:39,0.03,0.49,0.00,24.27,27.02,30.32,14.33,47.25,1012.30,2031.02,3263.77,2966.02,3399.86,600.05,591.01,8.44,0000 0000 0000 0000 000000
2017-05-18 07:13:41,0.08,0.49,0.00,24.27,27.02,30.32,14.43,47.36,1012.39,2031.03,3262.00,2965.17,3398.71,600.00,591.02,8.49,0000 0000 0000 0000 000000
2017-05-18 07:18:42,0.05,0.49,0.00,24.28,27.02,30.31,14.37,47.41,1012.61,2031.06,3260.34,2964.24,3397.80,599.90,591.09,8.54,0000 0000 0000 0000 000000
2017-05-18 07:23:43,0.04,0.49,0.00,24.29,27.02,30.30,14.37,47.34,1012.70,2031.09,3259.44,2963.81,3397.03,600.20,591.41,8.59,0000 0000 0000 0000 000000
2017-05-18 07:28:44,0.04,0.50,0.00,24.32,27.02,30.28,14.37,47.34,1012.71,2031.07,3258.59,2963.05,3396.32,600.23,591.39,8.64,0000 0000 0000 0000 000000
2017-05-18 07:33:45,0.02,0.50,0.00,24.30,27.02,30.27,14.36,47.27,1012.71,2031.04,3257.78,2962.74,3395.79,599.81,590.97,8.69,0000 0000 0000 0000 000000
2017-05-18 07:38:46,0.03,0.50,0.00,24.25,27.02,30.26,14.33,47.27,1012.71,2031.03,3256.95,2962.03,3395.04,599.89,591.16,8.74,0000 0000 0000 0000 000000
2017-05-18 07:43:48,0.06,0.50,0.00,24.25,27.02,30.25,14.33,47.22,1012.71,2031.11,3255.87,2961.67,3394.45,600.10,591.36,8.79,0000 0000 0000 0000 000000
2017-05-18 07:48:49,0.06,0.51,0.00,24.26,27.02,30.25,14.29,47.11,1012.73,2031.08,3254.26,2960.78,3393.43,600.00,591.29,8.84,0000 0000 0000 0000 000000
2017-05-18 07:53:50,0.07,0.51,0.00,24.30,27.02,30.24,14.32,47.18,1012.76,2031.09,3252.72,2959.75,3392.34,600.35,591.52,8.89,0000 0000 0000 0000 000000
2017-05-18 07:58:52,0.04,0.51,0.00,24.26,27.02,30.23,14.32,47.13,1012.82,2031.10,3251.53,2958.97,3391.30,599.96,591.31,8.94,0000 0000 0000 0000 000000
2017-05-18 08:03:53,0.05,0.51,0.00,24.25,27.02,30.24,14.40,47.16,1012.91,2031.07,3250.42,2958.13,3390.64,600.02,591.44,8.99,0000 0000 0000 0000 000000
2017-05-18 08:08:55,0.06,0.52,0.00,24.27,27.02,30.24,14.28,47.13,1013.13,2031.06,3249.10,2957.26,3389.49,599.85,591.31,9.04,0000 0000 0000 0000 000000
2017-05-18 08:13:56,0.04,0.52,0.00,24.32,27.02,30.27,14.29,47.07,1013.20,2031.04,3248.03,2956.49,3388.73,599.62,590.97,9.09,0000 0000 0000 0000 000000
2017-05-18 08:18:57,0.03,0.52,0.00,24.31,27.02,30.27,14.34,47.21,1013.20,2031.04,3247.12,2955.92,3387.92,599.98,591.37,9.14,0000 0000 0000 0000 000000
2017-05-18 08:23:58,0.05,0.53,0.00,24.29,27.02,30.26,14.45,47.23,1013.20,2031.03,3246.15,2955.12,3387.02,600.65,592.02,9.19,0000 0000 0000 0000 000000
2017-05-18 08:28:59,0.05,0.53,0.00,24.30,27.02,30.26,14.26,47.11,1013.20,2031.03,3245.14,2954.50,3386.17,599.79,591.23,9.24,0000 0000 0000 0000 000000
2017-05-18 08:34:01,0.07,0.53,0.00,24.33,27.02,30.25,14.26,47.11,1013.20,2031.01,3243.70,2953.51,3384.92,599.55,590.94,9.29,0000 0000 0000 0000 000000
2017-05-18 08:39:02,0.16,0.54,0.00,24.32,27.02,30.26,14.35,47.17,1013.22,2031.02,3240.51,2951.29,3382.54,600.00,591.49,9.34,0000 0000 0000 0000 000000
2017-05-18 08:44:03,0.08,0.54,0.00,24.28,27.02,30.24,14.40,47.31,1013.21,2031.01,3238.01,2949.78,3380.78,600.43,591.84,9.40,0000 0000 0000 0000 000000
2017-05-18 08:49:05,0.06,0.55,0.00,24.32,27.02,30.24,14.34,47.17,1013.22,2031.01,3236.76,2948.89,3379.71,599.90,591.31,9.45,0000 0000 0000 0000 000000
2017-05-18 08:54:06,0.05,0.55,0.00,24.31,27.02,30.25,14.26,47.13,1013.23,2031.00,3235.73,2948.06,3378.79,599.75,591.15,9.50,0000 0000 0000 0000 000000
2017-05-18 08:59:07,0.06,0.55,0.00,24.27,27.02,30.25,14.42,47.18,1013.30,2031.00,3234.59,2947.29,3377.80,600.18,591.66,9.55,0000 0000 0000 0000 000000
2017-05-18 09:04:08,0.12,0.56,0.00,24.30,27.02,30.24,14.30,47.24,1013.31,2031.00,3232.32,2945.45,3375.81,599.48,590.99,9.60,0000 0000 0000 0000 000000
2017-05-18 09:09:09,0.11,0.56,0.00,24.30,27.02,30.24,14.40,47.21,1013.40,2031.00,3230.14,2943.92,3373.98,600.41,591.96,9.65,0000 0000 0000 0000 000000
2017-05-18 09:14:10,0.16,0.57,0.00,24.27,27.02,30.24,14.35,47.19,1013.51,2031.00,3227.09,2941.59,3371.29,600.08,591.75,9.70,0000 0000 0000 0000 000000
2017-05-18 09:19:12,0.11,0.58,0.00,24.30,27.02,30.25,14.31,47.15,1013.58,2031.00,3224.74,2939.71,3369.18,599.91,591.60,9.75,0000 0000 0000 0000 000000
2017-05-18 09:24:13,0.18,0.59,0.00,24.28,27.02,30.25,14.38,47.19,1013.64,2031.00,3221.55,2937.25,3366.42,600.28,592.08,9.80,0000 0000 0000 0000 000000
2017-05-18 09:29:14,0.28,0.60,0.00,24.30,27.02,30.25,14.20,47.21,1013.66,2031.00,3216.49,2933.35,3362.09,599.75,591.39,9.85,0000 0000 0000 0000 000000
2017-05-18 09:34:16,0.27,0.61,0.00,24.30,27.02,30.24,14.36,47.20,1013.67,2031.00,3211.16,2929.21,3357.45,599.94,591.75,9.90,0000 0000 0000 0000 000000
2017-05-18 09:39:17,0.25,0.63,0.00,24.30,27.02,30.25,14.33,47.19,1013.68,2031.00,3206.19,2925.38,3353.16,599.81,591.62,9.95,0000 0000 0000 0000 000000
2017-05-18 09:44:18,0.18,0.64,0.00,24.30,27.01,30.25,14.38,47.19,1013.69,2031.00,3201.77,2922.23,3349.60,599.76,591.48,10.00,0000 0000 0000 0000 000000
2017-05-18 09:49:20,0.18,0.65,0.00,24.28,27.00,30.25,14.40,47.21,1013.69,2031.00,3198.16,2919.94,3347.04,600.05,591.80,10.05,0000 0000 0000 0000 000000
2017-05-18 09:54:21,0.20,0.65,0.00,24.28,27.00,30.25,14.32,47.18,1013.69,2031.00,3194.21,2917.21,3344.02,600.05,591.87,10.10,0000 0000 0000 0000 000000
2017-05-18 09:59:22,0.21,0.67,0.00,24.30,27.00,30.26,14.35,47.13,1013.69,2031.00,3189.62,2914.15,3340.55,600.21,591.96,10.15,0000 0000 0000 0000 000000
2017-05-18 10:04:23,0.23,0.68,0.00,24.29,27.00,30.26,14.36,47.10,1013.69,2031.00,3184.78,2910.95,3337.00,600.41,592.12,10.20,0000 0000 0000 0000 000000
2017-05-18 10:09:25,0.25,0.69,0.00,24.30,27.00,30.26,14.32,47.19,1013.70,2031.00,3179.95,2907.36,3333.02,600.02,591.74,10.25,0000 0000 0000 0000 000000
2017-05-18 10:14:26,0.27,0.70,0.00,24.29,27.00,30.26,14.38,47.18,1013.81,2030.99,3174.96,2903.34,3328.62,600.12,591.92,10.30,0000 0000 0000 0000 000000
2017-05-18 10:19:27,0.29,0.72,0.00,24.31,27.00,30.25,14.37,47.24,1013.97,2030.99,3169.87,2898.98,3323.89,600.05,592.04,10.35,0000 0000 0000 0000 000000
2017-05-18 10:24:28,0.26,0.73,0.00,24.29,27.00,30.25,14.34,47.23,1014.07,2030.99,3165.10,2895.00,3319.48,599.84,591.78,10.40,0000 0000 0000 0000 000000
2017-05-18 10:29:30,0.21,0.74,0.00,24.29,27.00,30.25,14.32,47.19,1014.15,2030.99,3160.92,2891.51,3315.62,600.00,592.02,10.45,0000 0000 0000 0000 000000
2017-05-18 10:34:31,0.15,0.75,0.00,24.30,27.00,30.25,14.29,47.17,1014.08,2030.99,3158.07,2889.24,3313.06,599.84,591.80,10.50,0000 0000 0000 0000 000000
2017-05-18 10:39:32,0.25,0.76,0.00,24.28,27.00,30.25,14.41,47.12,1014.14,2030.98,3153.92,2885.90,3309.36,600.35,592.26,10.55,0000 0000 0000 0000 000000
2017-05-18 10:44:33,0.28,0.77,0.00,24.29,27.00,30.26,14.35,47.18,1014.17,2030.99,3148.68,2881.87,3304.86,600.09,592.12,10.60,0000 0000 0000 0000 000000
2017-05-18 10:49:35,0.28,0.79,0.00,24.26,27.00,30.26,14.33,47.13,1014.17,2030.99,3142.74,2877.80,3300.11,600.10,592.18,10.65,0000 0000 0000 0000 000000
2017-05-18 10:54:36,0.29,0.80,0.00,24.27,27.00,30.26,14.42,47.25,1014.17,2030.97,3136.81,2873.78,3295.57,599.89,591.89,10.70,0000 0000 0000 0000 000000
2017-05-18 10:59:38,0.27,0.82,0.00,24.28,27.00,30.29,14.39,47.13,1014.17,2030.97,3131.24,2869.90,3291.16,600.15,592.21,10.75,0000 0000 0000 0000 000000
2017-05-18 11:04:39,0.29,0.83,0.00,24.27,27.00,30.26,14.34,47.15,1014.18,2030.98,3125.62,2865.93,3286.73,599.79,591.96,10.80,0000 0000 0000 0000 000000
2017-05-18 11:09:40,0.29,0.85,0.00,24.31,27.00,30.27,14.29,47.09,1014.19,2030.98,3119.92,2861.80,3282.14,599.56,591.64,10.85,0000 0000 0000 0000 000000
2017-05-18 11:14:41,0.30,0.87,0.00,24.30,27.00,30.30,14.42,47.16,1014.40,2030.96,3113.98,2857.58,3277.42,600.07,592.12,10.90,0000 0000 0000 0000 000000
2017-05-18 11:19:43,0.36,0.88,0.00,24.30,27.00,30.27,14.48,47.27,1014.62,2030.96,3107.00,2852.79,3272.06,600.34,592.60,10.95,0000 0000 0000 0000 000000
2017-05-18 11:24:44,0.38,0.90,0.00,24.30,27.00,30.29,14.37,47.23,1014.62,2030.98,3099.24,2847.59,3266.30,600.04,592.37,11.00,0000 0000 0000 0000 000000
2017-05-18 11:29:45,0.41,0.92,0.00,24.28,27.00,30.28,14.38,47.23,1014.47,2030.98,3090.99,2842.01,3260.33,600.21,592.36,11.05,0000 0000 0000 0000 000000
2017-05-18 11:34:46,0.32,0.94,0.00,24.35,27.00,30.29,14.45,47.27,1014.50,2030.97,3083.74,2837.19,3254.91,599.93,591.99,11.10,0000 0000 0000 0000 000000
2017-05-18 11:39:47,0.13,0.95,0.00,24.35,27.00,30.29,14.34,47.11,1014.61,2030.95,3080.21,2834.78,3252.34,599.84,592.11,11.15,0000 0000 0000 0000 000000
2017-05-18 11:44:49,0.08,0.95,0.00,24.33,27.00,30.31,14.37,47.11,1014.65,2030.94,3078.44,2833.69,3250.91,600.08,592.37,11.20,0000 0000 0000 0000 000000
2017-05-18 11:49:50,0.09,0.96,0.00,24.33,27.00,30.30,14.35,47.18,1014.66,2030.95,3076.54,2832.46,3249.47,599.83,592.05,11.25,0000 0000 0000 0000 000000
2017-05-18 11:54:51,0.08,0.96,0.00,24.35,27.00,30.30,14.38,47.10,1014.66,2030.94,3074.79,2831.25,3247.99,600.21,592.41,11.30,0000 0000 0000 0000 000000
2017-05-18 11:59:53,0.08,0.97,0.00,24.34,27.00,30.30,14.23,46.98,1014.66,2030.93,3073.13,2830.08,3246.60,599.47,591.93,11.35,0000 0000 0000 0000 000000
2017-05-18 12:04:54,0.05,0.97,0.00,24.31,27.00,30.29,14.29,47.11,1014.66,2030.94,3071.98,2829.22,3245.63,599.80,592.01,11.40,0000 0000 0000 0000 000000
2017-05-18 12:09:55,0.06,0.97,0.00,24.32,27.00,30.29,14.35,47.13,1014.66,2030.92,3070.90,2828.30,3244.55,599.87,592.13,11.45,0000 0000 0000 0000 000000
2017-05-18 12:14:57,0.06,0.98,0.00,24.25,27.00,30.28,14.27,47.10,1014.66,2030.93,3069.78,2827.54,3243.54,599.97,592.14,11.50,0000 0000 0000 0000 000000
2017-05-18 12:19:58,0.04,0.98,0.00,24.25,27.00,30.27,14.43,47.22,1014.66,2030.85,3068.71,2826.75,3242.51,600.34,592.79,11.55,0000 0000 0000 0000 000000
2017-05-18 12:24:59,0.04,0.98,0.00,24.24,27.00,30.27,14.41,47.19,1014.67,2030.88,3067.82,2826.02,3241.71,599.99,592.35,11.60,0000 0000 0000 0000 000000
2017-05-18 12:30:01,0.04,0.99,0.00,24.30,27.00,30.26,14.39,47.17,1014.68,2030.80,3066.94,2825.25,3240.93,600.02,592.32,11.65,0000 0000 0000 0000 000000
2017-05-18 12:35:02,0.02,0.99,0.00,24.23,27.00,30.26,14.37,47.13,1014.68,2030.78,3066.01,2824.88,3240.06,599.91,592.34,11.70,0000 0000 0000 0000 000000
2017-05-18 12:40:03,0.07,0.99,0.00,24.20,27.00,30.25,14.47,47.18,1014.68,2030.88,3065.15,2824.11,3239.36,599.90,592.48,11.76,0000 0000 0000 0000 000000
2017-05-18 12:45:05,0.02,0.99,0.00,24.26,26.99,30.24,14.29,47.14,1014.68,2030.94,3064.48,2823.94,3238.91,599.95,592.34,11.81,0000 0000 0000 0000 000000
2017-05-18 12:50:06,0.05,0.99,0.00,24.29,26.99,30.24,14.32,47.21,1014.68,2030.92,3063.86,2823.13,3238.12,600.06,592.38,11.86,0000 0000 0000 0000 000000
2017-05-18 12:55:07,0.02,1.00,0.00,24.18,26.97,30.23,14.26,47.26,1014.70,2030.89,3063.04,2822.91,3237.58,599.76,592.36,11.91,0000 0000 0000 0000 000000
2017-05-18 13:00:08,0.04,1.00,0.00,24.15,26.97,30.22,14.36,47.17,1014.79,2030.86,3062.18,2822.11,3236.91,599.89,592.67,11.96,0000 0000 0000 0000 000000